Regional Weather Roundup
Issued by NWS Charleston, SC

Current Version | Previous Version | Graphics & Text | Print | Product List | Glossary On
Versions: 1 2 3 4 5 6 7 8 9 10 11 12 13 14 15 16 17 18 19 20 21 22 23 24 25 26 27 28 29 30 31 32 33 34 35 36 37 38 39 40 41 42 43 44 45 46 47 48 49 50
000
ASUS42 KCHS 181727
RWRCHS

REGIONAL WEATHER ROUNDUP
NATIONAL WEATHER SERVICE CHARLESTON SC
1200 PM EST WED JAN 18 2017

NOTE: "FAIR" INDICATES FEW OR NO CLOUDS BELOW 12,000 FEET WITH NO
SIGNIFICANT WEATHER AND/OR OBSTRUCTIONS TO VISIBILITY.

NOT ALL STATIONS ARE QUALITY CONTROLLED. USE DATA WITH CAUTION...
ESPECIALLY DEWPOINT OBSERVATIONS.

SCZ027-030-031-034>040-042>050-181800-
...SOUTHEAST SOUTH CAROLINA...

CITY           SKY/WX    TMP DP  RH WIND       PRES   REMARKS
N CHARLESTON   MOSUNNY   75  60  59 W15G22    30.05F
WATERFRONT PRK   N/A     69  63  81 W7        30.06F
MOUNT PLEASANT FAIR      73  63  68 W9G21     30.04F
JOHNS ISLAND   FAIR      73  63  68 SW13      30.06F
PINOPOLIS        N/A     66  61  82 W15       29.96F
MONCKS CORNER  FAIR      73  59  60 W7G17     30.03F
SUMMERVILLE    FAIR      73  63  68 W8        30.05F
BEAUFORT MCAS  PTSUNNY   73  61  65 W13       30.10F
BEAUFORT ARPT  PTSUNNY   70  61  73 W12       30.10F
HILTON HEAD IS MOSUNNY   72  63  73 SW10      30.13F
WALTERBORO       N/A    N/A N/A N/A W12       30.06F
ALLENDALE      PTSUNNY   73  61  64 W8G20     30.07F

...SOUTHERN MIDLANDS AND PEE DEE...

CITY           SKY/WX    TMP DP  RH WIND       PRES   REMARKS
GEORGETOWN     FAIR      75  59  57 W20G28    30.01F
KINGSTREE      FAIR      73  57  56 W13G21    29.99F
ORANGEBURG     SUNNY     75  60  59 W17G28    30.04F
BARNWELL       FAIR      75  63  64 W16       30.06F
AIKEN          FAIR      73  57  56 W20G25    30.08F
MANNING        FAIR      73  59  60 W12G17    30.02F
COLUMBIA       MOSUNNY   76  57  51 W21G30    30.02F
SUMTER         SUNNY     76  58  52 W13G21    29.99F
FLORENCE       CLOUDY    74  60  61 W12       29.99F
MYRTLE BEACH   PTSUNNY   73  59  60 W10       30.00F
N MYRTLE BEACH CLOUDY    72  60  66 W10G18    29.97F

$$

GAZ063-065-086>088-099>101-113>116-118-119-134>141-150-181800-
...SOUTHEAST GEORGIA...

CITY           SKY/WX    TMP DP  RH WIND       PRES   REMARKS
SAVANNAH ARPT  PTSUNNY   73  60  63 W17G23    30.12F
HUNTER AAF     PTSUNNY   71  61  70 W14       30.11F
FORT STEWART   CLOUDY    68  61  77 W7        30.14F
STATESBORO     MOSUNNY   74  64  69 W17       30.12F
SYLVANIA       MOSUNNY  N/A N/A N/A W10G21    30.12F
CLAXTON        PTSUNNY  N/A N/A N/A SW8       30.13F

...CSRA...CENTRAL AND FAR SOUTHEAST GEORGIA...

CITY           SKY/WX    TMP DP  RH WIND       PRES   REMARKS
THOMSON        SUNNY     76  63  64 W14G26    30.13F
AUGUSTA-BUSH   MOSUNNY   77  60  55 W21G28    30.07F
AUGUSTA-DANIEL MOSUNNY   74  57  55 W13G25    30.09F
SWAINSBORO     PTSUNNY   72  61  68 MISG      30.14F
VIDALIA        PTSUNNY   72  64  78 NW10      30.15F
EASTMAN        PTSUNNY   73  52  47 NW9       30.18F
HAZLEHURST     CLOUDY    71  65  83 W6        30.15F
ALMA           CLOUDY    70  63  78 W13       30.17F
WAYCROSS       CLOUDY    76  68  77 NW12G17   30.17F
JESUP          PTSUNNY   72  61  68 NW9       30.15F
BAXLEY         CLOUDY    72  68  88 W8        30.16F
BRUNSWICK      MOSUNNY   79  64  61 W14G21    30.14F
SAINT SIMONS   SUNNY     75  61  61 W10       30.15F

$$

SCZ027-028-034-036>038-045-046-048>050-GAZ119-141-181800-
...LAKE AND SUPPLEMENTAL COASTAL OBSERVATIONS...

STATION/POSITION TIME  TEMP    WIND        PRES    WAVE   SWELL
                       AIR SEA DIR/SP/G            HT/PER HT/PER/DIR
                 (UTC) (F)     (DEG/KT/KT) (MB)    (FT/S) (FT/S/D)
WINYAH BAY       1630   72     270/ 11     1017.0F
LAKE MURRAY      1630   68     250/ 12/ 16 1016.6F
ACE BASIN NERRS  1645   69     250/  6     1019.0F
FORT PULASKI     1700   66 57  290/ 13/ 15 1020.4
SAPELO ISLAND    1700   74     300/ 12     1021.0

$$

ANZ835-935-AMZ111-154-330-350-352-354-370-450-454-472-181800-
...C-MAN AND BUOY OBSERVATIONS...

STATION/POSITION TIME  TEMP    WIND        PRES    WAVE   SWELL
                       AIR SEA DIR/SP/G            HT/PER HT/PER/DIR
                 (UTC) (F)     (DEG/KT/KT) (MB)    (FT/S) (FT/S/D)
BUOY 41004       1650   67 71  260/ 19/ 21 1017.8F   4/ 5   2/150/ 8
BUOY 41008       1650   61 60  210/ 10/ 10 1020.3F   2/ 9   2/ 80/ 9
FOLLY BEACH CMAN 1700   71     250/ 10/ 16 1018.7F
CAPERS NEARSHORE 1708   58 55  230/ 12/ 16 1017.5F
FRIPP NEARSHORE  1708   60 57  230/ 10/ 12 1019.3F


STATION/POSITION TIME  TEMP    WIND        PRES    WAVE   SWELL
                       AIR SEA DIR/SP/G            HT/PER HT/PER/DIR
                 (UTC) (F)     (DEG/KT/KT) (MB)    (FT/S) (FT/S/D)
5E ST. MARYS GA  1700      63                N/A     2/11
FRYING PAN BUOY  1710   69 71  220/ 21/ 25 1014.4
BUOY 41025       1650   65 72  270/ 25/ 31 1012.1F   8/ 7   2/180/11
CAPE LOOKOUT NC  1700   58     260/ 12/ 15 1013.0F
BUOY 41002       1650   71 71  240/ 16/ 19 1017.2F   6/ 7   2/210/27
BUOY 41010       NOT AVBL
ST AUGUSTINE FL  1700   76 62  250/ 10/ 13 1022.0F


$$




USA.gov is the U.S. government's official web portal to all federal, state and local government web resources and services.